TimeCST,TemperatureF,Dew PointF,Humidity,Sea Level PressureIn,VisibilityMPH,Wind Direction,Wind SpeedMPH,Gust SpeedMPH,PrecipitationIn,Events,Conditions,WindDirDegrees,DateUTC
12:15 AM,17.6,11.7,78,30.23,7.0,North,21.9,29.9,N/A,,Mostly Cloudy,350,2013-01-24 06:15:00
12:35 AM,17.4,13.8,86,30.24,2.5,North,13.8,-,N/A,,Overcast,350,2013-01-24 06:35:00
12:55 AM,17.4,13.6,85,30.26,4.0,North,13.8,-,N/A,,Mostly Cloudy,350,2013-01-24 06:55:00
1:15 AM,16.3,11.3,81,30.27,10.0,North,11.5,16.1,N/A,,Mostly Cloudy,350,2013-01-24 07:15:00
1:35 AM,16.2,8.2,71,30.29,10.0,NNW,15.0,-,N/A,,Mostly Cloudy,340,2013-01-24 07:35:00
1:55 AM,16.9,9.1,72,30.31,7.0,North,10.4,-,N/A,,Overcast,360,2013-01-24 07:55:00
2:15 AM,16.2,12.2,84,30.33,0.8,NNE,10.4,-,N/A,,Overcast,30,2013-01-24 08:15:00
2:35 AM,14.9,12.2,89,30.35,0.8,NE,8.1,-,N/A,,Overcast,50,2013-01-24 08:35:00
2:55 AM,14.5,12.0,90,30.36,1.2,NNE,3.5,-,N/A,,Overcast,20,2013-01-24 08:55:00
3:15 AM,14.5,11.8,89,30.37,2.5,NNE,6.9,-,N/A,,Overcast,30,2013-01-24 09:15:00
3:55 AM,14.0,11.3,89,30.38,1.5,Calm,Calm,-,N/A,,Overcast,0,2013-01-24 09:55:00
4:15 AM,14.0,11.8,91,30.39,1.5,North,4.6,-,N/A,,Overcast,10,2013-01-24 10:15:00
4:35 AM,14.0,11.7,90,30.40,1.5,Calm,Calm,-,N/A,,Overcast,0,2013-01-24 10:35:00
4:55 AM,14.0,11.8,91,30.42,2.5,Calm,Calm,-,N/A,,Overcast,0,2013-01-24 10:55:00
5:15 AM,14.0,12.0,92,30.43,1.0,West,4.6,-,N/A,,Overcast,260,2013-01-24 11:15:00
5:35 AM,14.2,12.2,92,30.44,1.2,WSW,4.6,-,N/A,,Overcast,250,2013-01-24 11:35:00
5:55 AM,14.0,12.0,92,30.46,1.5,WSW,6.9,-,N/A,,Overcast,250,2013-01-24 11:55:00
6:15 AM,12.9,10.4,90,30.47,1.0,WSW,6.9,-,N/A,,Overcast,250,2013-01-24 12:15:00
6:35 AM,11.8,9.3,90,30.48,2.0,WSW,6.9,-,N/A,,Overcast,250,2013-01-24 12:35:00
6:55 AM,11.1,8.4,89,30.49,3.0,WSW,5.8,-,N/A,,Overcast,250,2013-01-24 12:55:00
7:15 AM,9.1,6.6,89,30.49,10.0,WSW,3.5,-,N/A,,Mostly Cloudy,240,2013-01-24 13:15:00
7:35 AM,7.9,5.5,90,30.50,10.0,Calm,Calm,-,N/A,,Clear,0,2013-01-24 13:35:00
7:55 AM,7.7,5.5,91,30.51,7.0,Calm,Calm,-,N/A,,Clear,0,2013-01-24 13:55:00
8:15 AM,7.2,4.8,90,30.53,7.0,Calm,Calm,-,N/A,,Mostly Cloudy,0,2013-01-24 14:15:00
8:35 AM,7.9,5.5,90,30.55,5.0,Calm,Calm,-,N/A,,Scattered Clouds,0,2013-01-24 14:35:00
9:15 AM,8.4,6.3,91,30.58,10.0,Calm,Calm,-,N/A,,Clear,0,2013-01-24 15:15:00
9:55 AM,9.1,6.8,90,30.60,10.0,Calm,Calm,-,N/A,,Clear,0,2013-01-24 15:55:00
10:15 AM,9.7,7.3,90,30.60,10.0,Calm,Calm,-,N/A,,Clear,0,2013-01-24 16:15:00
10:35 AM,10.0,7.5,90,30.60,10.0,Calm,Calm,-,N/A,,Clear,0,2013-01-24 16:35:00
10:55 AM,10.2,7.7,90,30.60,10.0,Calm,Calm,-,N/A,,Clear,0,2013-01-24 16:55:00
11:15 AM,11.8,8.4,86,30.60,10.0,Calm,Calm,-,N/A,,Clear,0,2013-01-24 17:15:00
11:35 AM,13.1,7.7,79,30.59,10.0,Calm,Calm,-,N/A,,Clear,0,2013-01-24 17:35:00
11:55 AM,13.3,7.5,78,30.58,10.0,Calm,Calm,-,N/A,,Clear,0,2013-01-24 17:55:00
12:15 PM,14.2,7.7,75,30.57,10.0,NNW,3.5,-,N/A,,Clear,340,2013-01-24 18:15:00
12:35 PM,14.7,7.7,74,30.56,10.0,Calm,Calm,-,N/A,,Clear,0,2013-01-24 18:35:00
12:55 PM,15.1,7.5,72,30.56,10.0,Calm,Calm,-,N/A,,Clear,0,2013-01-24 18:55:00
1:15 PM,16.0,6.1,65,30.55,10.0,Calm,Calm,-,N/A,,Clear,0,2013-01-24 19:15:00
1:35 PM,17.6,5.2,58,30.55,10.0,ESE,3.5,-,N/A,,Clear,110,2013-01-24 19:35:00
1:55 PM,18.9,3.7,52,30.54,10.0,SE,3.5,-,N/A,,Clear,140,2013-01-24 19:55:00
2:15 PM,18.5,2.5,50,30.54,10.0,SE,4.6,-,N/A,,Clear,130,2013-01-24 20:15:00
2:35 PM,18.0,3.7,54,30.53,10.0,SE,3.5,-,N/A,,Clear,140,2013-01-24 20:35:00
2:55 PM,17.8,3.7,54,30.54,10.0,ESE,3.5,-,N/A,,Clear,120,2013-01-24 20:55:00
3:15 PM,18.0,3.4,53,30.54,10.0,SE,3.5,-,N/A,,Clear,130,2013-01-24 21:15:00
3:35 PM,17.4,3.7,55,30.53,10.0,SE,4.6,-,N/A,,Clear,130,2013-01-24 21:35:00
3:55 PM,17.1,3.6,56,30.53,10.0,ESE,3.5,-,N/A,,Clear,110,2013-01-24 21:55:00
4:15 PM,17.6,3.7,55,30.53,10.0,East,3.5,-,N/A,,Clear,100,2013-01-24 22:15:00
5:15 PM,15.1,4.8,64,30.51,10.0,East,3.5,-,N/A,,Clear,80,2013-01-24 23:15:00
5:35 PM,16.3,4.8,61,30.51,10.0,East,3.5,-,N/A,,Clear,90,2013-01-24 23:35:00
5:55 PM,17.2,5.0,59,30.51,10.0,East,3.5,-,N/A,,Clear,80,2013-01-24 23:55:00
6:15 PM,16.9,5.7,62,30.50,10.0,East,4.6,-,N/A,,Scattered Clouds,80,2013-01-25 00:15:00
6:35 PM,17.1,5.9,62,30.49,10.0,East,4.6,-,N/A,,Scattered Clouds,80,2013-01-25 00:35:00
7:15 PM,17.2,5.9,61,30.48,10.0,East,3.5,-,N/A,,Mostly Cloudy,90,2013-01-25 01:15:00
7:35 PM,17.4,6.8,63,30.47,10.0,East,4.6,-,N/A,,Overcast,90,2013-01-25 01:35:00
7:55 PM,17.6,6.4,62,30.47,10.0,East,5.8,-,N/A,,Overcast,90,2013-01-25 01:55:00
8:15 PM,17.6,6.3,61,30.45,10.0,East,6.9,-,N/A,,Mostly Cloudy,100,2013-01-25 02:15:00
8:35 PM,17.6,6.6,62,30.44,10.0,East,5.8,-,N/A,,Scattered Clouds,100,2013-01-25 02:35:00
8:55 PM,17.4,6.8,63,30.44,10.0,East,5.8,-,N/A,,Clear,100,2013-01-25 02:55:00
9:15 PM,17.4,7.2,64,30.43,10.0,East,6.9,-,N/A,,Clear,100,2013-01-25 03:15:00
9:35 PM,17.4,7.7,66,30.43,10.0,East,6.9,-,N/A,,Clear,100,2013-01-25 03:35:00
9:55 PM,17.4,8.2,67,30.44,10.0,East,3.5,-,N/A,,Mostly Cloudy,100,2013-01-25 03:55:00
10:15 PM,17.4,8.6,68,30.42,10.0,East,5.8,-,N/A,,Scattered Clouds,90,2013-01-25 04:15:00
10:35 PM,17.6,8.6,68,30.42,10.0,ESE,6.9,-,N/A,,Scattered Clouds,120,2013-01-25 04:35:00
10:55 PM,18.3,7.9,64,30.40,10.0,SE,8.1,-,N/A,,Clear,130,2013-01-25 04:55:00
11:15 PM,18.5,7.7,63,30.37,10.0,SE,10.4,-,N/A,,Scattered Clouds,130,2013-01-25 05:15:00
11:35 PM,18.5,7.9,63,30.37,10.0,SE,10.4,-,N/A,,Scattered Clouds,130,2013-01-25 05:35:00
11:55 PM,18.5,7.9,63,30.37,10.0,SE,9.2,-,N/A,,Scattered Clouds,130,2013-01-25 05:55:00